This demonstration page uses our WeatherBlox Daily Observations layout. Learn more.

Left ArrowRight Arrow

53.62937, 11.41316

Hourly Observations for June 27, 2015

Temp ( °F °C ) Dew Point ( °F °C ) Humidity (%) Winds ( mph kmh ) Pressure ( in mb ) Visibility ( mi km ) Precip ( " mm )
6:20 am 06:20 Mostly Sunny 59 15 59 15 100 100 E 3 6 29.91 1013 5 8 N/A
6:50 am 06:50 Mostly Sunny 61 16 59 15 94 94 VRB 2 4 29.91 1013 6 9 N/A
7:20 am 07:20 Mostly Sunny 63 17 57 14 83 83 SSE 7 11 29.91 1013 6 9 N/A
7:50 am 07:50 Mostly Sunny 63 17 57 14 83 83 S 10 17 29.91 1013 6 9 N/A
8:20 am 08:20 Mostly Sunny 64 18 59 15 83 83 S 8 13 29.91 1013 7 11 N/A
8:50 am 08:50 Mostly Sunny 64 18 59 15 83 83 SSW 8 13 29.91 1013 7 11 N/A
9:20 am 09:20 Mostly Sunny 64 18 59 15 83 83 SW 9 15 29.91 1013 7 11 N/A
9:50 am 09:50 Mostly Sunny 64 18 59 15 83 83 SW 8 13 29.91 1013 7 11 N/A
10:20 am 10:20 Mostly Sunny 66 19 61 16 83 83 SW 8 13 29.91 1013 7 11 N/A
10:50 am 10:50 Mostly Sunny 66 19 59 15 78 78 SW 13 20 29.91 1013 7 11 N/A
11:20 am 11:20 Mostly Sunny 70 21 63 17 78 78 SW 14 22 29.88 1012 7 11 N/A
11:50 am 11:50 Mostly Cloudy 70 21 61 16 73 73 SW 18 30 29.88 1012 30 48 N/A
12:20 pm 12:20 Mostly Cloudy 68 20 61 16 78 78 SW 16 26 29.88 1012 30 48 N/A
12:50 pm 12:50 Mostly Cloudy with Light Rain 66 19 61 16 83 83 SW 15 24 29.91 1013 30 48 N/A
1:20 pm 13:20 Mostly Cloudy 68 20 61 16 78 78 SW 13 20 29.91 1013 30 48 N/A
1:50 pm 13:50 Mostly Cloudy 68 20 63 17 83 83 SW 12 19 29.91 1013 30 48 N/A
2:20 pm 14:20 Mostly Cloudy 70 21 63 17 78 78 SSW 9 15 29.88 1012 30 48 N/A
2:50 pm 14:50 Partly Cloudy 72 22 63 17 73 73 SW 9 15 29.88 1012 30 48 N/A
3:20 pm 15:20 Mostly Cloudy 72 22 63 17 73 73 SW 9 15 29.88 1012 30 48 N/A
3:50 pm 15:50 Mostly Cloudy 72 22 61 16 69 69 WSW 13 20 29.88 1012 30 48 N/A
4:20 pm 16:20 Partly Cloudy with Showers Nearby 70 21 59 15 69 69 WSW 16 26 29.88 1012 30 48 N/A
4:50 pm 16:50 Mostly Cloudy 66 19 59 15 78 78 W 12 19 29.91 1013 30 48 N/A
5:20 pm 17:20 Partly Cloudy 66 19 61 16 83 83 VRB 2 4 29.91 1013 30 48 N/A
5:50 pm 17:50 Partly Cloudy 68 20 61 16 78 78 VRB 6 9 29.91 1013 30 48 N/A
6:20 pm 18:20 Partly Cloudy 70 21 61 16 73 73 W 9 15 29.91 1013 30 48 N/A
6:50 pm 18:50 Partly Cloudy 68 20 57 14 69 69 WNW 14 22 29.91 1013 30 48 N/A

Powered by AerisWeather